Location: Newark
(45.4667°N, 11.4500°E)
Time: 10:35:36
(UTC+00:00)

ISS - Visible Passes

Search period start: 21 November 2019 00:00
Search period end: 01 December 2019 00:00
Orbit: 412 x 421 km, 51.6° (Epoch: 21 November)

Date Brightness Start Highest point End Pass type
(mag) Time Alt. Az. Time Alt. Az. Time Alt. Az.
21 Nov -0.9 18:15:26 10° SW 18:16:06 15° SW 18:16:06 15° SW visible
22 Nov -2.7 17:27:21 10° SSW 17:29:58 33° SSE 17:29:58 33° SSE visible
23 Nov -2.1 16:39:33 10° S 16:42:11 22° SE 16:43:45 16° E visible
23 Nov -1.2 18:15:20 10° WSW 18:16:40 22° WSW 18:16:40 22° WSW visible
24 Nov -3.9 17:26:54 10° WSW 17:30:15 84° SSE 17:30:22 81° E visible
25 Nov -3.4 16:38:37 10° SW 16:41:54 53° SE 16:44:00 20° ENE visible
25 Nov -1.1 18:15:35 10° W 18:16:55 20° WNW 18:16:55 20° WNW visible
26 Nov -3.2 17:26:58 10° W 17:30:13 48° NNW 17:30:29 47° N visible
27 Nov -3.6 16:38:24 10° WSW 16:41:44 69° NNW 16:44:00 19° NE visible
27 Nov -1.0 18:15:54 10° WNW 18:16:54 17° WNW 18:16:54 17° WNW visible
28 Nov -2.6 17:27:13 10° WNW 17:30:17 32° NNW 17:30:23 32° N visible
29 Nov -2.8 16:38:32 10° W 16:41:43 38° NNW 16:43:51 18° NE visible
29 Nov -0.8 18:16:03 10° WNW 18:16:44 14° NW 18:16:44 14° NW visible
30 Nov -2.3 17:27:27 10° WNW 17:30:11 27° N 17:30:11 27° N visible
